Regional Weather Roundup
Issued by NWS

Home | Current Version | Previous Version | Graphics & Text | Print | Product List | Glossary On
Versions: 1 2 3 4 5 6 7 8 9 10 11 12 13 14 15 16 17 18 19 20 21 22 23 24 25 26 27 28 29 30 31 32 33 34 35 36 37 38 39 40 41 42 43 44 45 46 47 48 49 50
000
ASUS45 KTFX 020204
RWRMT
MONTANA HOURLY WEATHER ROUNDUP
NATIONAL WEATHER SERVICE GREAT FALLS MT
804 PM MDT WED APR 1 2015

NOTE: "FAIR" INDICATES FEW OR NO CLOUDS BELOW 12000 FEET WITH NO
SIGNIFICANT WEATHER AND/OR OBSTRUCTIONS TO VISIBILITY.

* THESE STATIONS ARE NOT UNDER NWS QUALITY CONTROL. THEY DO NOT
   REPORT WEATHER SUCH AS PRECIPITATION OR FOG.

MTZ001>007-043-020300-
WEST OF THE DIVIDE
CITY           SKY/WX    TMP DP  RH WIND       PRES   REMARKS
KALISPELL      MOCLDY    37  27  67 W8        29.99R WCI  31
MISSOULA       MOCLDY    36  27  70 NW20      30.06R WCI  25
BUTTE          PTCLDY    30  18  61 NW7       29.98R WCI  23
MULLAN PASS    LGT SNOW  23  21  92 VRB6      29.99S WCI  16
* ESSEX        N/A       34  28  79 SW1        N/A
* LINCOLN      N/A       37  18  46 SW7G19     N/A   WCI  32
* LOOKOUT PASS N/A       29  24  82 N4G10      N/A
* POLSON       N/A       37  23  57 W3G13      N/A
* RONAN APT    MOCLDY    43  27  53 W15G23     N/A
* SEELEY LAKE  N/A       35  25  67 SW4G22     N/A
* THOMP F APT  MOCLDY    31  11  43 NW4G11     N/A
$$

MTZ008-052>055-020300-
SOUTHWEST MONTANA
CITY           SKY/WX    TMP DP  RH WIND       PRES   REMARKS
BOZEMAN        CLOUDY    37  18  46 W14       29.97R WCI  28
DILLON         CLOUDY    36  18  48 NE7       29.96R WCI  30
* W YELLOWSTON MOCLDY    28  22  78 W1G10      N/A
* THREE FORKS  PTCLDY    39  16  39 W11G16     N/A   WCI  32
* TWIN BRIDGES MOCLDY    39  10  30 W10        N/A   WCI  32
* BOULDER HILL N/A       31  11  43 E1G8       N/A
* HOMESTAKE PS N/A       27  16  63 NW9G18     N/A   WCI  18
* MONIDA PASS  N/A       27  12  53 NW17G22    N/A   WCI  14
* RAYNOLDS PAS N/A       28  27  96 N10        N/A   WCI  19
* WHITEHALL    N/A       42  16  35 W8G20      N/A
* WISE RIVER   N/A       33  12  42 W11G24     N/A   WCI  24
$$

MTZ009>010-012-014-046-048-049-054-020300-
EAST SLOPES AND CENTRAL MONTANA
CITY           SKY/WX    TMP DP  RH WIND       PRES   REMARKS
CUT BANK       PTCLDY    39  16  39 W26G36    29.84R WCI  28
GREAT FALLS    PTCLDY    41   7  24 W16       29.86R
HELENA         PTCLDY    39  19  45 W21G33    29.95R WCI  29
MALMSTROM AFB  MOCLDY    45   7  21 W21G33    29.87R
* DEARBORN     N/A       44  14  30 S12G19     N/A
* EAST GLACIER N/A       33  14  45 NW11G29    N/A   WCI  24
* MONARCH      N/A       36   4  26 NW17G26    N/A   WCI  26
* PENDROY      N/A       38  11  33 W27G35     N/A   WCI  26
* ROGERS PASS  N/A       32  15  49 SE11       N/A   WCI  23
* SAINT MARY   N/A       34  18  52 SW7G20     N/A   WCI  28
* SWEET GRASS  N/A       37  23  57 VRB20G28    N/A   WCI  27
$$

MTZ011-013-016-021-035-040-045-047-050-051-020300-
NORTH CENTRAL MONTANA
CITY           SKY/WX    TMP DP  RH WIND       PRES   REMARKS
HAVRE          CLOUDY    41  25  53 NW26G36   29.78R
LEWISTOWN      CLOUDY    43  10  26 W14       29.82S
* N BAR RANCH  MOCLDY    39   5  24 W8        29.83S WCI  33
* MALTA APT    PTCLDY    46  18  33 SW23G28    N/A
* CHESTER      N/A       45  13  27 NW26G39    N/A
* DENTON       N/A       41   9  27 W15        N/A
* GEYSER       N/A       40   6  24 W21G30     N/A   WCI  30
* JUDITH GAP   N/A       39   8  27 NW10G18    N/A   WCI  32
* LOMA         N/A       47  12  24 SW30G39    N/A
$$

MTZ017>020-022>027-061-062-020300-
NORTHEAST MONTANA
CITY           SKY/WX    TMP DP  RH WIND       PRES   REMARKS
GLASGOW        PTCLDY    46  16  30 W16       29.69S
GLENDIVE       CLEAR     39  25  57 W7        29.76S WCI  34
JORDAN         PTCLDY    45  18  34 W10       29.76R
SIDNEY         PTCLDY    46  21  37 SW14      29.72S
WOLF POINT     PTCLDY    46  28  50 SW12      29.69F
* BEAVER HILL  N/A       43  23  45 W9G14      N/A
* CIRCLE       N/A       43  30  60 N/A        N/A
* LINDSAY DVD  N/A       36  26  67 W6         N/A   WCI  31
* NAVAJO       N/A       40  25  55 W12        N/A   WCI  33
* SACO         N/A       47  18  31 SW24G33    N/A
$$

MTZ028>042-056>058-020300-
SOUTHCENTRAL AND SOUTHEAST MONTANA
CITY           SKY/WX    TMP DP  RH WIND       PRES   REMARKS
BAKER          PTCLDY    45  16  31 W13       29.79R
BILLINGS       PTCLDY    45  12  26 W20G31    29.88R
LIVINGSTON     PTCLDY    37  16  42 NW12      29.94R WCI  29
MILES CITY     CLEAR     48  16  28 W15       29.79S
* LAUREL APT   MOCLDY    45  12  26 SW21G32    N/A
* ROUNDUP APT  PTCLDY    46   1  15 W10G16     N/A
* ALZADA       N/A       44   8  23 W6         N/A
* HYSHAM       N/A       47  10  22 NW11G19    N/A
* LAME DEER    N/A       42   9  26 W12G18     N/A
* REED POINT   N/A       39  19  45 W7         N/A   WCI  34
* ROSCOE HILL  N/A       30  14  51 W4G11      N/A
$$

REGIONAL REPORTS...DAKOTAS
CITY           SKY/WX    TMP DP  RH WIND       PRES   REMARKS
WILLISTON      PTCLDY    46  21  37 W17       29.67R
DICKINSON      CLEAR     43  19  38 W13       29.73R
CROSBY         MOCLDY    41  28  60 W13       29.63S
WATFORD CITY   CLEAR     45  21  38 W14G21    29.68S
BISMARCK       PTCLDY    52  23  32 NW13      29.71R
GRAND FORKS    MOCLDY    50  37  61 NW16      29.56R
FARGO          MOCLDY    57  37  47 NW21      29.58R
BUFFALO SD     PTCLDY    45  10  24 NW15      29.74R
RAPID CITY     MOCLDY    43  16  34 N9        29.83R
$$

REGIONAL REPORTS...WYOMING/IDAHO/WASHINGTON
CITY           SKY/WX    TMP DP  RH WIND       PRES   REMARKS
GILLETTE       PTCLDY    30  14  51 W8        29.87S WCI  22
SHERIDAN       CLOUDY    45  10  24 NW21      29.88R
CODY           PTCLDY    36  19  50 SW13      29.92S WCI  27
YELLOWSTONE LA MOCLDY    21  18  88 CALM      29.95S
SALMON         MOCLDY    36  21  54 N21       30.04R WCI  25
MULLAN PASS    LGT SNOW  23  21  92 VRB6      29.99S WCI  16
SAND POINT     N/A       37  34  89 N5        30.09R WCI  33
SPOKANE        MOCLDY    39  34  82 E8        30.09R WCI  33
$$

REGIONAL REPORTS...SASKATCHEWAN
CITY           SKY/WX    TMP DP  RH WIND       PRES   REMARKS
SWIFT CURRENT  CLOUDY    36  28  73 W33G41    29.54S WCI  22

$$



USA.gov is the U.S. government's official web portal to all federal, state and local government web resources and services.